This is the latest recevied weather packets stored in our database for station/object K6CEG. If no packets are shown the sender has not sent any weather packets the latest 10 day(s).
| Time | Temp. | Humidity | Pressure | Rain* | Wind** | Luminosity | Snow |
|---|---|---|---|---|---|---|---|
| 1788144634 | 25.56° C | 54% | 1012.7 hPa | 0 mm | - | 0 W/m² | - |
| 1788144330 | 25.56° C | 54% | 1012.7 hPa | 0 mm | - | 0 W/m² | - |
| 1788144029 | 25.56° C | 55% | 1012.6 hPa | 0 mm | - | 0 W/m² | - |
| 1788143728 | 26.11° C | 55% | 1012.8 hPa | 0 mm | - | 0 W/m² | - |
| 1788143428 | 26.11° C | 55% | 1012.6 hPa | 0 mm | - | 0 W/m² | - |
| 1788143127 | 26.11° C | 55% | 1012.6 hPa | 0 mm | - | 0 W/m² | - |
| 1788142822 | 26.11° C | 54% | 1012.5 hPa | 0 mm | - | 0 W/m² | - |
| 1788142521 | 26.67° C | 52% | 1012.7 hPa | 0 mm | - | 3 W/m² | - |
| 1788142217 | 26.67° C | 52% | 1012.4 hPa | 0 mm | - | 5 W/m² | - |
| 1788141913 | 26.67° C | 50% | 1012.4 hPa | 0 mm | - | 6 W/m² | - |
| 1788141607 | 27.22° C | 49% | 1012.3 hPa | 0 mm | - | 8 W/m² | - |
| 1788141303 | 27.78° C | 48% | 1012.3 hPa | 0 mm | - | 12 W/m² | - |
| 1788140997 | 27.78° C | 48% | 1012.4 hPa | 0 mm | - | 15 W/m² | - |
| 1788140692 | 27.78° C | 48% | 1012.2 hPa | 0 mm | - | 21 W/m² | - |
| 1788140388 | 27.78° C | 48% | 1012.3 hPa | 0 mm | - | 15 W/m² | - |
| 1788140084 | 28.33° C | 46% | 1012.3 hPa | 0 mm | - | 23 W/m² | - |
| 1788139783 | 28.33° C | 46% | 1012.5 hPa | 0 mm | - | 24 W/m² | - |
| 1788139479 | 28.89° C | 46% | 1012.4 hPa | 0 mm | - | 25 W/m² | - |
| 1788139178 | 28.89° C | 46% | 1012.4 hPa | 0 mm | - | 29 W/m² | - |
| 1788138874 | 29.44° C | 46% | 1012.1 hPa | 0 mm | - | 50 W/m² | - |
| 1788138570 | 29.44° C | 43% | 1012.3 hPa | 0 mm | - | 45 W/m² | - |
| 1788138270 | 29.44° C | 44% | 1012.2 hPa | 0 mm | - | 61 W/m² | - |
| 1788137965 | 29.44° C | 43% | 1012.2 hPa | 0 mm | - | 32 W/m² | - |
| 1788137661 | 29.44° C | 45% | 1012.3 hPa | 0 mm | - | 26 W/m² | - |
| 1788137355 | 30° C | 45% | 1012.4 hPa | 0 mm | - | 30 W/m² | - |
* Rain latest hour (hover to see other rain measurements)
** Current wind speed in m/s (hover to see current wind gust speed)